sat.trackr.live / text

‹ back to catalog

STARLINK-1171

NORAD 45062 · 2020-006U

PAYLOAD ACTIVE UNKNOWN

§ Identity

Operator
Country
US
Launch date
2020-01-29
Launch site
AFETR
Launch vehicle
Mass (kg)
RCS (m²)

Purposes: comms

External: N2YO · Heavens-Above · Gunter

§ Orbital elements

Epoch: 2026-09-15T00:00:02.000160Z

Period
90.19 min
Inclination
53.0298°
Eccentricity
0.0005110
Mean motion
15.96640708 rev/d
Perigee alt
280.3 km
Apogee alt
287.2 km
Semi-major
6,661.9 km
B*
4.4825e-4
RAAN
24.2031°
Arg perigee
318.7544°
Mean anomaly
334.0557°
Rev number
599

§ Raw data

STARLINK-11711 45062U 20006U   26258.00002315  .00192109  25821-4  44825-3 0  99992 45062  53.0298  24.2031 0005110 318.7544 334.0557 15.96640708  5993

JSON: /api/v1/satellites/45062 · /tle

For live sub-satellite position, see the globe view (requires WebGL).

§ Visibility from observer

Set your observer location to see the next 7 days of passes ≥ 10°. The values pass through the URL so the page stays shareable.

No JS? Fill the form by hand. The geolocation button needs JavaScript.